Seward, AK

10:59 PM AKST on November 22, 2017 (GMT -0900)
Seward

Weather History for PAWD - October, 2012

Change the Weather History Date:

Friday, October 26, 2012

  Actual Average Record
Temperature  
Mean Temperature 32 °F -  
Max Temperature 39 °F 40 °F 51 °F (1957)
Min Temperature 26 °F 30 °F 19 °F (1966)
Degree Days  
Heating Degree Days 32    
Moisture  
Dew Point 18 °F    
Average Humidity 60    
Maximum Humidity 75    
Minimum Humidity 38    
Precipitation  
Precipitation 0.00 in - - ()
Sea Level Pressure  
Sea Level Pressure 30.32 in    
Wind  
Wind Speed 13 mph (NNE)    
Max Wind Speed 16 mph    
Max Gust Speed 24 mph    
Visibility 10 miles    
Events      
Averages and records for this station are not official NWS values.
T = Trace of Precipitation, MM = Missing Value Source: NWS Daily Summary

Daily Weather History Graph

Daily Weather History Graph

Search for Another Location

Airport or City:

Trip Planner

Search our weather history database for the weather conditions in past years. The results will help you decide how hot, cold, wet, or windy it might be!

Date:

Astronomy

Oct. 26, 2012 Rise Set
Actual Time 9:06 AM AKDT 6:15 PM AKDT
Civil Twilight 8:22 AM AKDT 6:59 PM AKDT
Nautical Twilight 7:33 AM AKDT 7:48 PM AKDT
Astronomical Twilight 6:45 AM AKDT 8:36 PM AKDT
Moon 5:04 PM AKDT (10/26) 5:37 AM AKDT (10/26)
Length of Visible Light 10h 36m
Length of Day
9h 08m
Waxing Gibbous, 92% of the Moon is Illuminated
Oct 26
Waxing Gibbous
Oct 29
Full
Nov 6
Last Quarter
Nov 13
New
Nov 20
First Quarter

Hourly Weather History & Observations

Time (AKDT) Temp. Windchill Dew Point Humidity Pressure Visibility Wind Dir Wind Speed Gust Speed Precip Events Conditions
12:53 AM 30.9 °F 21.7 °F 19.9 °F 64% 30.44 in 10.0 mi NNE 11.5 mph 20.7 mph N/A   Clear
1:53 AM 30.0 °F 18.7 °F 19.0 °F 64% 30.43 in 10.0 mi NNE 16.1 mph 24.2 mph N/A   Clear
2:53 AM 28.9 °F 18.6 °F 19.0 °F 67% 30.43 in 10.0 mi NNE 12.7 mph - N/A   Clear
3:53 AM 28.0 °F 16.5 °F 19.0 °F 69% 30.42 in 10.0 mi North 15.0 mph 21.9 mph N/A   Clear
4:53 AM 27.0 °F 16.7 °F 19.0 °F 72% 30.41 in 10.0 mi North 11.5 mph 19.6 mph N/A   Clear
5:53 AM 27.0 °F 14.7 °F 19.0 °F 72% 30.39 in 10.0 mi NNE 16.1 mph 21.9 mph N/A   Clear
6:53 AM 26.1 °F 15.0 °F 19.0 °F 75% 30.38 in 10.0 mi NNE 12.7 mph 20.7 mph N/A   Clear
7:53 AM 26.1 °F 14.5 °F 19.0 °F 75% 30.38 in 10.0 mi NNE 13.8 mph 21.9 mph N/A   Clear
8:53 AM 26.1 °F 13.6 °F 18.0 °F 71% 30.37 in 10.0 mi North 16.1 mph - N/A   Clear
9:53 AM 26.1 °F 14.0 °F 18.0 °F 71% 30.35 in 10.0 mi North 15.0 mph 21.9 mph N/A   Clear
10:53 AM 27.0 °F 15.2 °F 19.0 °F 72% 30.36 in 10.0 mi NNE 15.0 mph - N/A   Clear
11:53 AM 30.9 °F 20.2 °F 18.0 °F 59% 30.34 in 10.0 mi NNE 15.0 mph 20.7 mph N/A   Clear
12:53 PM 33.1 °F 25.5 °F 19.0 °F 56% 30.34 in 10.0 mi North 9.2 mph 19.6 mph N/A   Clear
1:53 PM 36.0 °F 29.0 °F 19.0 °F 50% 30.32 in 10.0 mi NNE 9.2 mph - N/A   Clear
2:53 PM 39.0 °F 33.4 °F 15.1 °F 38% 30.30 in 10.0 mi NNE 8.1 mph 18.4 mph N/A   Clear
3:53 PM 39.0 °F 32.8 °F 16.0 °F 39% 30.28 in 10.0 mi NNE 9.2 mph - N/A   Clear
4:53 PM 37.0 °F 30.4 °F 17.1 °F 44% 30.26 in 10.0 mi NNE 9.2 mph - N/A   Clear
5:53 PM 34.0 °F 26.0 °F 16.0 °F 48% 30.24 in 10.0 mi NNE 10.4 mph - N/A   Clear
6:53 PM 33.1 °F 23.4 °F 15.1 °F 48% 30.23 in 10.0 mi NNE 13.8 mph 20.7 mph N/A   Clear
7:53 PM 30.9 °F 21.7 °F 16.0 °F 54% 30.22 in 10.0 mi NNE 11.5 mph - N/A   Clear
8:53 PM 30.9 °F 22.8 °F 16.0 °F 54% 30.21 in 10.0 mi North 9.2 mph - N/A   Clear
9:53 PM 30.0 °F 20.5 °F 17.1 °F 59% 30.19 in 10.0 mi NNE 11.5 mph 17.3 mph N/A   Clear
10:53 PM 28.9 °F 19.2 °F 18.0 °F 64% 30.17 in 10.0 mi NNE 11.5 mph - N/A   Clear
11:53 PM 28.0 °F 18.1 °F 18.0 °F 66% 30.17 in 10.0 mi North 11.5 mph 20.7 mph N/A   Clear